Regional Weather Roundup
Issued by NWS

Home | Current Version | Previous Version | Graphics & Text | Print | Product List | Glossary On
Versions: 1 2 3 4 5 6 7 8 9 10 11 12 13 14 15 16 17 18 19 20 21 22 23 24 25 26 27 28 29 30 31 32 33 34 35 36 37 38 39 40 41 42 43 44 45 46 47 48 49 50
000
ASUS43 KMKX 160421
RWRWI

WISCONSIN REGIONAL WEATHER ROUNDUP
NATIONAL WEATHER SERVICE MILWAUKEE/SULLIVAN WI
1000 PM CST FRI DEC 15 2017

NOTE: "FAIR" INDICATES FEW OR NO CLOUDS BELOW 12,000 FEET WITH NO
SIGNIFICANT WEATHER AND/OR OBSTRUCTIONS TO VISIBILITY.

WIZ001-002-006>008-014>016-023>028-160500-
NORTHWEST WISCONSIN

CITY           SKY/WX    TMP DP  RH WIND       PRES   REMARKS
SUPERIOR ARPT  FLURRIES  17   8  69 CALM      29.79S
ASHLAND        CLOUDY    10   6  84 CALM      29.81R
HAYWARD        CLOUDY    17   9  70 CALM      29.75S
SIREN          LGT SNOW  19  16  88 CALM      29.75S
CUMBERLAND     LGT SNOW  18  14  86 E3        29.73S
RICE LAKE      LGT SNOW  18  16  90 CALM      29.76S
CHETEK           N/A     18  15  90 CALM      29.76R
LADYSMITH      LGT SNOW  17  12  81 E3        29.78R
EAU CLAIRE     LGT SNOW  22  20  92 CALM      29.76S VSB 3/4
MENOMONIE      LGT SNOW  23  21  93 E7        29.75F WCI  15
NEW RICHMOND   LGT SNOW  24  20  87 SE3       29.73S
OSCEOLA        LGT SNOW  23  21  92 E6        29.76S WCI  16
$$

WIZ003>005-009-010-017-018-160500-
NORTH CENTRAL WISCONSIN

CITY           SKY/WX    TMP DP  RH WIND       PRES   REMARKS
MANITOWISH WTR CLOUDY     5   4  94 CALM      29.75R
ARBOR VITAE    CLOUDY     6   3  87 CALM      29.74S
WOODRUFF       CLOUDY     6   3  87 CALM      29.74S
RHINELANDER    CLOUDY     7   5  91 CALM      29.75S
EAGLE RIVER    CLOUDY     6   2  84 CALM      29.75R
LAND O LAKES   CLOUDY     6   3  87 CALM      29.77R
PHILLIPS       CLOUDY    11   8  87 CALM      29.74S
TOMAHAWK       CLOUDY     8   5  87 CALM      29.77R
MEDFORD        LGT SNOW  15  10  79 CALM      29.75S
MERRILL        CLOUDY    11   8  88 CALM      29.78R
$$

WIZ029-030-035-036-043>047-160500-
CENTRAL WISCONSIN

CITY           SKY/WX    TMP DP  RH WIND       PRES   REMARKS
WAUSAU         CLOUDY    14  10  84 E3        29.77S
MOSINEE        LGT SNOW  16  10  79 CALM      29.78F
MARSHFIELD     LGT SNOW  17  13  84 E5        29.75S FOG     WCI  10
STEVENS POINT  LGT SNOW  17  11  79 CALM      29.80S
WAUPACA        FLURRIES  22  14  71 E3        29.82F
WAUTOMA        LGT SNOW  21  16  79 CALM      29.82
WISC RAPIDS    LGT SNOW  20  13  74 SE5       29.80F WCI  13
CAMP DOUGLAS   FLURRIES  26  24  94 E5        29.78F WCI  20
$$

WIZ011>013-019>022-031-037>040-048>050-160500-
NORTHEAST WISCONSIN

CITY           SKY/WX    TMP DP  RH WIND       PRES   REMARKS
ANTIGO         CLOUDY     8   6  91 CALM      29.77R
SHAWANO        CLOUDY    15  10  82 CALM      29.83S
OCONTO         CLOUDY     9   5  84 CALM      29.85S
STURGEON BAY   CLOUDY    18  10  71 NW5       29.85R WCI  11
GREEN BAY      CLOUDY    15   9  76 CALM      29.85S
MANITOWOC      CLOUDY    16  10  79 CALM      29.85F
APPLETON       FLURRIES  19   9  63 CALM      29.81F
CLINTONVILLE   CLOUDY    16   9  73 CALM      29.83S
OSHKOSH        LGT SNOW  22  15  75 E5        29.82F WCI  16
$$

WIZ032>034-041-042-053>061-160500-
SOUTHWEST WISCONSIN

CITY           SKY/WX    TMP DP  RH WIND       PRES   REMARKS
LA CROSSE      LGT SNOW  31  29  92 E3        29.78F FOG
SPARTA         LGT SNOW  28  28  96 CALM      29.78F
VIROQUA        CLOUDY    29  29 100 CALM      29.76F
BOSCOBEL       CLOUDY    31  27  85 CALM      29.80F
PRAIRIE DU CHI CLOUDY    35  24  65 CALM      29.79S
PLATTEVILLE    CLOUDY    34  26  74 S10       29.80F WCI  26
$$

WIZ056-057-062-063-064-067-068-160500-
SOUTH CENTRAL WISCONSIN

CITY           SKY/WX    TMP DP  RH WIND       PRES   REMARKS
REEDSBURG      LGT RAIN  29  29  99 CALM      29.78F
BARABOO/DELLS  FLURRIES  29  27  93 SE3       29.78F
LONE ROCK      CLOUDY    31  28  89 E5        29.80F WCI  26
MINERAL POINT  CLOUDY    34  30  86 S8        29.78F WCI  27
MADISON        CLOUDY    30  26  85 S6        29.81F WCI  24
MIDDLETON      CLOUDY    32  28  83 CALM      29.81F
WATERTOWN      LGT SNOW  29  29 100 CALM      29.82F
MONROE         CLOUDY    32  27  80 S12       29.80F WCI  23
JANESVILLE     CLOUDY    34  27  75 SW10      29.83F WCI  26
$$

WIZ051-052-058>065-066-070>072-160500-
SOUTHEAST WISCONSIN

CITY           SKY/WX    TMP DP  RH WIND       PRES   REMARKS
MILWAUKEE      LGT SNOW  31  28  89 SW5       29.84F FOG     WCI  26
WAUKESHA       LGT SNOW  28  27  93 S3        29.83F
MILWAUKEE/TIMM LGT SNOW  30  27  86 SW6       29.84F WCI  24
RACINE         LGT SNOW  31  27  85 S3        29.87F FOG
BURLINGTON     PTCLDY    30  27  88 SW3       29.84F
KENOSHA        CLOUDY    32  25  75 SW6       29.85F WCI  26
FOND DU LAC    LGT SNOW  24  18  77 CALM      29.82F
SHEBOYGAN      LGT SNOW  21  15  78 CALM      29.84S
WEST BEND      FLURRIES  23  23 100 CALM      29.82F
JUNEAU         LGT SNOW  28  27  93 S5        29.83S WCI  23
$$

LSZ147-162-160500-
LAKE SUPERIOR

STATION/POSITION TIME  TEMP    WIND        PRES    WAVE
                       AIR SEA DIR/SP/G            HT/PER
                 (UTC) (F)     (DEG/KT/KT) (MB)    (FT/S)
DEVILS ISLAND    0400   19     150/  2/  3 1010.7R
SAXON HARBOR     0340   11                 1009.5R
$$

LMZ867-665-643>646-160500-
LAKE MICHIGAN

STATION/POSITION TIME  TEMP    WIND        PRES    WAVE
                       AIR SEA DIR/SP/G            HT/PER
                 (UTC) (F)     (DEG/KT/KT) (MB)    (FT/S)
NORTHPORT PIER   0402   20     300/  9/ 11 1010.5
KEWAUNEE LAKESHO 0354   14     290/  2/  3 1010.2F
SHEBOYGAN LAKESH 0400   23     350/  3/  3 1011.6F
PORT WASHINGTON  0340   26     240/  4/  5 1011.5F
MILWAUKEE LAKESH 0400   31     210/  9/ 10   N/A
KENOSHA   LAKESH 0400   32     190/  5/  7 1011.2
$$

TC  - TEMPERATURE IN CELSIUS
VSB - VISIBILITY IN STATUTE MILES
WCI - WIND CHILL INDEX
HX  - HEAT INDEX





USA.gov is the U.S. government's official web portal to all federal, state and local government web resources and services.